[[{"header":{"parameterUnit":"m.s-1","parameterCategory":1,"la1":30.2991,"la2":30.254,"lo1":-89.0895,"lo2":-89.0444,"dy":0.0017,"dx":0.0017,"nx":28,"ny":28,"refTime":"2025-01-05T03:00:00:Z","depth":0,"parameterNumber":2,"parameterNumberName":"U-component_of_WINDS"},"data":[0,0,0,0,0,0,0,0,0,0,0,0,0,0,0,0,0,0,0,0,0,0,0,0,0,0,0,0,0,0,0,0,0,0,0,0,0,0,0,0,0,0,0,0,0,0,0,0,0,0,0,0,0,0,0,0,0,0,-2.7729,-2.7731,0,-2.7908,-2.791,-2.7912,-2.799,-2.7989,-2.7989,-2.7989,-2.8173,-2.8178,-2.8183,0,0,0,0,0,0,0,0,0,0,0,0,0,-2.7456,-2.746,-2.7729,-2.7732,-2.7734,-2.7908,-2.791,-2.7913,-2.799,-2.7989,-2.7989,-2.7989,-2.8172,-2.8178,-2.8184,0,0,0,0,0,0,0,0,0,0,0,0,0,-2.7598,-2.7462,-2.7729,-2.7793,-2.7801,-2.7907,-2.791,-2.7913,-2.799,-2.7989,-2.7989,-2.7989,-2.817,-2.8177,-2.8185,-2.8241,0,0,-2.8209,-2.8212,0,0,0,0,0,0,0,0,-2.759,-2.7608,-2.7781,-2.7789,-2.7798,-2.7926,-2.7882,-2.8023,-2.799,-2.7918,-2.7989,-2.7988,-2.8092,-2.8106,-2.814,-2.825,-2.8258,-2.8209,-2.8214,-2.8217,-2.8219,0,0,0,0,0,0,0,-2.758,-2.7601,-2.78,-2.7784,-2.7794,-2.7813,-2.7833,-2.7909,-2.8005,-2.7924,-2.793,-2.795,-2.8096,-2.8133,-2.8145,-2.8261,-2.8209,-2.8216,-2.8221,-2.8224,-2.8426,-2.8427,0,0,0,0,0,0,-2.756,-2.7592,-2.7795,-2.7806,-2.7691,-2.7819,-2.7841,-2.7885,-2.8004,-2.8022,-2.7951,-2.7953,-2.812,-2.8136,-2.8152,-2.8226,-2.8217,-2.8225,-2.8229,-2.8426,-2.8427,-2.8427,0,0,0,0,0,0,-2.7553,-2.7577,-2.7787,-2.7701,-2.7729,-2.7824,-2.7873,-2.7889,-2.7926,-2.8024,-2.8042,-2.797,-2.812,-2.8141,-2.8219,-2.8234,-2.8228,-2.8235,-2.8425,-2.8426,-2.8427,-2.8375,0,0,0,0,0,0,-2.7545,-2.7574,-2.7596,-2.7701,-2.7733,-2.785,-2.7874,-2.7893,-2.7939,-2.7944,-2.8048,-2.8064,-2.8121,-2.8207,-2.8226,-2.8244,-2.8241,-2.8424,-2.8425,-2.8427,-2.8376,-2.8374,-2.8373,0,0,0,0,0,-2.7535,-2.7575,-2.7597,-2.7621,-2.7763,-2.7851,-2.787,-2.7934,-2.794,-2.7963,-2.8026,-2.8061,-2.8229,-2.8214,-2.8237,-2.8257,-2.8423,-2.8425,-2.8427,-2.8377,-2.8375,-2.8373,0,0,0,0,0,0,-2.7471,-2.759,-2.7616,-2.769,-2.776,-2.7864,-2.7895,-2.793,-2.8,-2.8002,-2.8079,-2.8102,-2.8173,-2.8223,-2.8204,-2.8319,-2.8329,-2.8335,-2.8283,-2.8282,-2.8281,-2.8267,-2.8248,0,0,0,0,0,-2.7465,-2.7526,-2.7627,-2.7683,-2.7717,-2.78,-2.784,-2.7884,-2.7959,-2.7989,-2.8058,-2.8131,-2.82,-2.8244,-2.8313,-2.8384,-2.8407,-2.8409,-2.8407,-2.8406,-2.841,-2.8452,-2.8454,-2.8433,-2.8433,-2.8433,0,0,-2.7454,-2.7527,-2.7561,-2.7672,-2.7731,-2.7793,-2.7824,-2.7888,-2.7935,-2.7999,-2.8077,-2.813,-2.8216,-2.829,-2.8326,-2.8334,-2.8422,-2.8408,-2.8406,-2.8412,-2.8454,-2.8456,-2.8457,-2.8434,-2.8434,-2.8434,0,0,-2.7466,-2.7527,-2.758,-2.7638,-2.7727,-2.7782,-2.7795,-2.7894,-2.7932,-2.801,-2.806,-2.8117,-2.8234,-2.8294,-2.8339,-2.8373,-2.8408,-2.8393,-2.8386,-2.8425,-2.8427,-2.8429,-2.8441,-2.8445,-2.8398,-2.8397,-2.8397,0,-2.7441,-2.7536,-2.7603,-2.7665,-2.7713,-2.7773,-2.7828,-2.7881,-2.7988,-2.802,-2.8027,-2.8176,-2.8238,-2.8327,-2.8335,-2.837,-2.8387,-2.8382,-2.8421,-2.8424,-2.8426,-2.8439,-2.8443,-2.8395,-2.8395,-2.8396,-2.8396,0,-2.7501,-2.7567,-2.7599,-2.77,-2.7752,-2.7809,-2.7886,-2.793,-2.7969,-2.8023,-2.8102,-2.8179,-2.8265,-2.8289,-2.8328,-2.8384,-2.8386,-2.8406,-2.8418,-2.8425,-2.8438,-2.8444,-2.8392,-2.8393,-2.8393,-2.8394,0,0,-2.7478,-2.7615,-2.7626,-2.7673,-2.7775,-2.7827,-2.7888,-2.7971,-2.8007,-2.8079,-2.8132,-2.823,-2.8249,-2.8301,-2.8347,-2.8381,-2.8404,-2.8398,-2.8401,-2.8396,-2.8471,-2.8455,-2.8459,-2.8427,-2.8428,-2.8429,-2.8463,0,-2.7504,-2.7615,-2.7677,-2.7762,-2.7823,-2.7881,-2.7935,-2.8003,-2.8055,-2.8115,-2.8174,-2.8242,-2.8262,-2.8293,-2.833,-2.8393,-2.842,-2.8391,-2.8478,-2.848,-2.8455,-2.8466,-2.845,-2.8479,-2.8469,-2.847,-2.8471,0,-2.7549,-2.7619,-2.771,-2.7806,-2.7834,-2.788,-2.7962,-2.8018,-2.8097,-2.8133,-2.819,-2.8236,-2.8302,-2.8309,-2.8402,-2.8382,-2.8421,-2.8457,-2.846,-2.8471,-2.8476,-2.8478,-2.849,-2.8494,-2.8479,-2.8479,-2.8478,0,-2.7523,-2.764,-2.771,-2.7748,-2.7861,-2.7892,-2.7941,-2.802,-2.8066,-2.8137,-2.8168,-2.8246,-2.8289,-2.8349,-2.8414,-2.8413,-2.8501,-2.8513,-2.8533,-2.8532,-2.855,-2.8548,-2.8568,-2.8574,-2.8574,-2.8574,-2.8574,0,-2.7546,-2.7599,-2.77,-2.7743,-2.7804,-2.7875,-2.7935,-2.7988,-2.8058,-2.8112,-2.8167,-2.8218,-2.8301,-2.8362,-2.8414,-2.8484,-2.8503,-2.8534,-2.8547,-2.8529,-2.8525,-2.8556,-2.8556,-2.8575,-2.8575,-2.8575,-2.8574,0,-2.7527,-2.7597,-2.7677,-2.7777,-2.7803,-2.7844,-2.793,-2.7974,-2.8029,-2.8098,-2.8118,-2.8204,-2.8279,-2.835,-2.845,-2.8485,-2.8554,-2.8572,-2.8527,-2.8535,-2.8551,-2.8548,-2.8592,-2.8602,-2.86,-2.86,-2.86,0,-2.7538,-2.758,-2.7684,-2.7725,-2.7772,-2.7836,-2.7883,-2.7955,-2.8002,-2.8095,-2.8128,-2.8206,-2.8272,-2.8389,-2.8461,-2.8537,-2.8557,-2.8567,-2.8569,-2.855,-2.8558,-2.8555,-2.8559,-2.8565,-2.8565,-2.8565,-2.8565,0,-2.7548,-2.758,-2.7646,-2.7723,-2.7778,-2.7843,-2.7909,-2.7939,-2.8024,-2.8074,-2.815,-2.8201,-2.8303,-2.838,-2.8465,-2.8516,-2.8555,-2.8563,-2.8572,-2.8555,-2.8527,-2.8543,-2.8523,-2.8562,-2.8562,-2.8563,-2.8563,-2.8563,-2.7545,-2.7586,-2.7665,-2.7736,-2.7794,-2.7855,-2.7901,-2.7961,-2.8026,-2.8114,-2.8152,-2.8229,-2.8308,-2.8426,-2.8476,-2.8538,-2.8547,-2.856,-2.8563,-2.8565,-2.8561,-2.8517,-2.8553,-2.8554,-2.8554,-2.8554,-2.8554,0,-2.7559,-2.7613,-2.7678,-2.7769,-2.7825,-2.7855,-2.7931,-2.7976,-2.8042,-2.8112,-2.8176,-2.8264,-2.8339,-2.8417,-2.8496,-2.8531,-2.8551,-2.8549,-2.8548,-2.8559,-2.8548,-2.8533,-2.8532,-2.8532,-2.8532,-2.8532,-2.8532,-2.8532,-2.7573,-2.7643,-2.7684,-2.7783,-2.7838,-2.7913,-2.7953,-2.801,-2.8066,-2.8161,-2.8223,-2.8273,-2.8346,-2.8432,-2.8502,-2.8523,-2.855,-2.8544,-2.857,-2.8558,-2.856,-2.8561,-2.8547,-2.8549,-2.8549,-2.8576,-2.8576,-2.8576]},{"header":{"parameterUnit":"m.s-1","parameterCategory":1,"la1":30.2991,"la2":30.254,"lo1":-89.0895,"lo2":-89.0444,"dy":0.0017,"dx":0.0017,"nx":28,"ny":28,"refTime":"2025-01-05T03:00:00:Z","depth":0,"parameterNumber":3,"parameterNumberName":"V-component_of_WINDS"},"data":[0,0,0,0,0,0,0,0,0,0,0,0,0,0,0,0,0,0,0,0,0,0,0,0,0,0,0,0,0,0,0,0,0,0,0,0,0,0,0,0,0,0,0,0,0,0,0,0,0,0,0,0,0,0,0,0,0,0,6.9774,6.9774,0,6.985,6.9851,6.9852,6.983,6.9828,6.9826,6.9825,6.9901,6.9905,6.9908,0,0,0,0,0,0,0,0,0,0,0,0,0,6.9608,6.9611,6.9774,6.9775,6.9776,6.985,6.9851,6.9852,6.983,6.9828,6.9826,6.9824,6.99,6.9904,6.9908,0,0,0,0,0,0,0,0,0,0,0,0,0,6.9681,6.9612,6.9773,6.9773,6.9774,6.985,6.9851,6.9853,6.983,6.9828,6.9825,6.9823,6.9899,6.9904,6.9909,6.9989,0,0,6.9925,6.9927,0,0,0,0,0,0,0,0,6.9677,6.9688,6.9772,6.9773,6.9774,6.9828,6.9821,6.9898,6.9831,6.9809,6.9825,6.9822,6.9879,6.9885,6.9905,6.9993,6.9996,6.9925,6.9929,6.9931,6.9932,0,0,0,0,0,0,0,6.9672,6.9684,6.9804,6.9774,6.9775,6.977,6.9777,6.9835,6.9856,6.9811,6.9809,6.9819,6.9879,6.99,6.9906,6.9997,6.9925,6.993,6.9933,6.9935,7.0159,7.0162,0,0,0,0,0,0,6.9667,6.968,6.9801,6.9806,6.9719,6.9774,6.9783,6.9813,6.9855,6.986,6.9821,6.9817,6.9892,6.99,6.9909,7.0009,6.9931,6.9936,6.9939,7.0156,7.016,7.0163,0,0,0,0,0,0,6.9663,6.9678,6.9798,6.9743,6.9758,6.978,6.9814,6.9816,6.9837,6.9863,6.9866,6.9839,6.9891,6.9902,6.9971,7.0011,6.9938,6.9943,7.0153,7.0157,7.0161,7.0208,0,0,0,0,0,0,6.9658,6.9676,6.9707,6.9744,6.9761,6.9859,6.9816,6.9819,6.9847,6.9843,6.9881,6.9885,6.9889,6.9963,6.9976,7.0017,6.9947,7.0149,7.0155,7.016,7.0203,7.0213,7.0222,0,0,0,0,0,6.9652,6.9715,6.9708,6.9723,6.9799,6.9861,6.9871,6.9876,6.985,6.9881,6.9899,6.9883,7.0005,6.997,6.9984,7.0028,7.0147,7.0153,7.0159,7.0199,7.0211,7.0222,0,0,0,0,0,0,6.9681,6.972,6.9713,6.9789,6.9822,6.9857,6.9896,6.9888,6.9928,6.9923,6.9927,6.9936,7.0007,7.0024,6.9985,7.011,7.0072,7.0081,7.0097,7.0109,7.0118,7.0114,6.9951,0,0,0,0,0,6.9696,6.9743,6.9774,6.9839,6.9856,6.9874,6.99,6.9902,6.9936,6.9949,6.9971,7.0004,7.005,7.008,7.0123,7.0205,7.0215,7.0242,7.0252,7.026,7.0268,7.0317,7.0331,7.0183,7.0183,7.0183,0,0,6.9728,6.9755,6.9784,6.9846,6.9871,6.9921,6.9885,6.9938,6.9975,6.9957,7.0025,7.0042,7.0079,7.0156,7.0191,7.0173,7.0311,7.0268,7.0274,7.0278,7.0325,7.0339,7.0351,7.0188,7.0187,7.0186,0,0,6.9812,6.9836,6.9895,6.9922,6.9962,6.9974,6.9988,7.0025,7.0037,7.0105,7.0094,7.0137,7.0215,7.0244,7.0268,7.0367,7.0357,7.0381,7.0432,7.0479,7.0491,7.0501,7.054,7.0553,7.0389,7.0389,7.039,0,6.9846,6.992,6.9925,6.9981,7.001,6.9997,7.0058,7.0083,7.0135,7.0156,7.0134,7.0235,7.0259,7.0344,7.0369,7.0388,7.0406,7.0377,7.0489,7.0499,7.0509,7.0546,7.056,7.0392,7.0392,7.0392,7.0392,0,6.9962,7.0014,7.0057,7.011,7.0143,7.02,7.0215,7.0248,7.0248,7.0262,7.0334,7.0362,7.0413,7.0433,7.0431,7.052,7.0508,7.0487,7.0449,7.0526,7.0561,7.0575,7.0397,7.0396,7.0395,7.0394,0,0,7.0065,7.0123,7.0139,7.0165,7.021,7.025,7.0308,7.036,7.039,7.0426,7.0476,7.0544,7.0528,7.0556,7.0558,7.0599,7.068,7.0574,7.0575,7.0596,7.0783,7.08,7.0817,7.0673,7.0675,7.0677,7.0782,0,7.0155,7.0259,7.0267,7.036,7.041,7.0401,7.0452,7.0485,7.0501,7.0546,7.0562,7.0613,7.0584,7.0602,7.0642,7.0662,7.0718,7.0654,7.0721,7.0724,7.0715,7.0834,7.0851,7.0948,7.0795,7.0797,7.0799,0,7.0274,7.0318,7.0417,7.0459,7.048,7.0526,7.0576,7.0618,7.0657,7.0666,7.07,7.0697,7.0758,7.0717,7.0803,7.0759,7.0787,7.0801,7.0805,7.0813,7.0767,7.0849,7.0978,7.0994,7.082,7.0818,7.0816,0,7.0344,7.0427,7.0498,7.052,7.0569,7.0603,7.0625,7.0661,7.0693,7.0737,7.0758,7.0807,7.0835,7.0873,7.0885,7.0853,7.0972,7.093,7.0983,7.0983,7.1009,7.1008,7.1149,7.1023,7.1023,7.1022,7.1022,0,7.0446,7.0508,7.0531,7.0575,7.0645,7.0654,7.0723,7.0743,7.0776,7.0825,7.0818,7.0864,7.0875,7.0923,7.0932,7.1004,7.1016,7.1026,7.1028,7.1028,7.1027,7.1048,7.1043,7.1026,7.1025,7.1024,7.1024,0,7.0536,7.0553,7.0631,7.0673,7.0685,7.0735,7.0771,7.0814,7.083,7.0892,7.0907,7.0932,7.0989,7.1004,7.107,7.1077,7.1163,7.1157,7.1151,7.1151,7.1204,7.12,7.1365,7.1389,7.1244,7.1246,7.1247,0,7.0601,7.0649,7.0697,7.073,7.0755,7.0807,7.084,7.0851,7.0887,7.0937,7.0975,7.1031,7.1077,7.1169,7.1193,7.1245,7.1243,7.1297,7.125,7.1251,7.1248,7.1246,7.1253,7.1306,7.1308,7.1309,7.131,0,7.0716,7.0723,7.0772,7.0826,7.0866,7.0908,7.0948,7.0976,7.0992,7.1033,7.1092,7.1128,7.1199,7.1256,7.131,7.1333,7.1326,7.1325,7.134,7.1342,7.1338,7.1345,7.1178,7.1321,7.132,7.1319,7.1319,7.1318,7.0798,7.0842,7.0884,7.094,7.0972,7.101,7.1054,7.1077,7.1127,7.1187,7.1189,7.1255,7.1296,7.1368,7.1394,7.1446,7.143,7.1451,7.1457,7.1463,7.1469,7.1328,7.1455,7.1455,7.1455,7.1454,7.1454,0,7.0915,7.0943,7.0994,7.1052,7.1097,7.1087,7.1132,7.117,7.1228,7.1267,7.1314,7.1384,7.144,7.147,7.1526,7.1563,7.1561,7.1577,7.1576,7.1583,7.1479,7.1461,7.1578,7.1578,7.1578,7.1578,7.1578,7.1578,7.0982,7.1057,7.107,7.1162,7.1189,7.1254,7.1281,7.1318,7.135,7.1429,7.1476,7.1496,7.1532,7.1592,7.1644,7.1651,7.1674,7.1693,7.1699,7.1602,7.1589,7.1577,7.1561,7.1697,7.1697,7.1798,7.1799,7.18]}]]